Regional Weather Roundup
Issued by NWS Sioux Falls, SD

Home | Current Version | Previous Version | Graphics & Text | Print | Product List | Glossary Off
Versions: 1 2 3 4 5 6 7 8 9 10 11 12 13 14 15 16 17 18 19 20 21 22 23 24 25 26 27 28 29 30 31 32 33 34 35 36 37 38 39 40 41 42 43 44 45 46 47 48 49 50

000
ASUS43 KFSD 181802
RWRFSD

WEATHER ROUNDUP FOR SE SOUTH DAKOTA/SW MINNESOTA/NW IOWA
NATIONAL WEATHER SERVICE SIOUX FALLS SD
1200 PM CST THU DEC 18 2014

NOTE: "FAIR" INDICATES FEW OR NO CLOUDS BELOW 12,000 FEET WITH NO
SIGNIFICANT WEATHER AND OR OBSTRUCTIONS TO VISIBILITY.


SDZ038>040-050-052>070-181900-
SOUTHEAST SOUTH DAKOTA

CITY           SKY/WX    TMP DP  RH WIND       PRES   REMARKS
CHAMBERLAIN    NOT AVBL
HURON          CLOUDY    24  19  81 S9        30.18F WCI  14
6HR MIN TEMP:  19; 6HR MAX TEMP:  24; 6HR PCP: TRACE;

MADISON        MOCLDY    19  19 100 S8        30.18F WCI   9
MITCHELL       CLOUDY    25  21  85 S10       30.20F WCI  15
6HR MIN TEMP:  21; 6HR MAX TEMP:  25;

SIOUX FALLS    CLOUDY    24  19  81 S7        30.20F WCI  16
6HR MIN TEMP:  19; 6HR MAX TEMP:  24;

WINNER         CLOUDY    28  23  81 S7        30.10F WCI  21
YANKTON        PTSUNNY   27  21  80 SE7       30.21F WCI  19
$$

MNZ071-072-080-081-089-090-097-098-181900-
SOUTHWEST MINNESOTA

CITY           SKY/WX    TMP DP  RH WIND       PRES   REMARKS
FAIRMONT       CLOUDY    19  14  79 SE5       30.25F WCI  13
JACKSON        CLOUDY    21  19  93 CALM      30.23F
LUVERNE        CLOUDY    27  21  80 S5        30.22F WCI  21
MARSHALL       CLOUDY    18  14  86 SE3       30.23F
6HR MIN TEMP:   7; 6HR MAX TEMP:  18;

MONTEVIDEO     CLOUDY    18  18 100 S5        30.26F WCI  11
PIPESTONE      CLOUDY    21  18  86 CALM      30.19F
REDWOOD FALLS  PTSUNNY   18  14  84 SE8       30.26F WCI   8
TRACY          CLOUDY    22  19  87 S3        30.22F
WINDOM         PTSUNNY   21  18  86 CALM      30.22F
WORTHINGTON    CLOUDY    21  18  86 S7        30.21F WCI  13
$$

IAZ001>003-012>014-020>022-031-032-NEZ013-014-SDZ071-181900-
NORTHWEST IOWA

CITY           SKY/WX    TMP DP  RH WIND       PRES   REMARKS
DENISON        CLOUDY    28  23  80 CALM      30.21F
ESTHERVILLE    CLOUDY    20  17  88 S6        30.24F WCI  12
SIOUX CITY     CLOUDY    29  21  72 SE7       30.24F WCI  22
6HR MIN TEMP:  26; 6HR MAX TEMP:  29;

SPENCER        CLOUDY    23  17  78 SE6       30.24F WCI  16
6HR MIN TEMP:  18; 6HR MAX TEMP:  23;

$$

ABBREVIATIONS USED IN REMARKS
   TC - TEMPERATURE IN CELSIUS
  WCI - WIND CHILL INDEX
   HX - HEAT INDEX
  VSB - VISIBILITY



USA.gov is the U.S. government's official web portal to all federal, state and local government web resources and services.